Find Kosmos-2342

NORAD ID: 24800 Int'l Des: 1997-022 Owner: PVO Country: RU operational
MEOELLIPTICALHEO_ELLIPTICALSEMI_SYNC

Current View

Loading 3D Globe...

About Kosmos-2342

Description loading...

Upcoming Passes

Passes for default location (London). Set your location on the main map for personalized predictions.

Altitude History

Loading altitude history...

Two-Line Element Set

1 24800U 97022A 26149.35157620 .00000878 00000-0 00000+0 0 9997
2 24800 67.5807 249.9677 6523417 127.8329 311.0967 1.99562127212030
Epoch: May 29, 2026 • Age: 47 hours

Current Status

Altitude 30243.5 km
Velocity 2.61 km/s
Sub-Earth Point -23.32°S, 114.67°W
Launch Date May 14, 1997
Age 29 years
Type other

Technical Details

Classification Payload
Mass 1250.00 kg
Dry Mass 1150.00 kg
Total Mass 1250.00 kg
Length 4.00 m
Diameter 2.00 m
Span 5.00 m
Shape Cyl + 2 Pan
Manufacturer NPOL/KOMET
Bus Type Oko
Phase Status In Orbit
Owner/State PVO/RU

Most Searched